Lexington Weather

Lexington, Massachusetts, USA

34°F
4/16/2021 10:45am 
  • Lexington Conditions: Snow, Fog, Overcast
  • Temperature: 34.2°F / 1.2°CWarmer 0.4°F than last hour.
  • Dew Point: 32.9°FIncreased 0.4°Fsince last hour.
  • Relative Humidity: 95
  • Wind: Wind from N N 1 mph, 10-min avg: Calm, gust: 2 mph
  • Barometer: 29.48 in Steady
  • Visibility: ½ mile
  • Snow Today: 1.3 in
  •   

Regional Weather Roundup
for Boston / Norton, MA

        
000
ASUS41 KBOX 100804
RWRBOX

REGIONAL WEATHER ROUNDUP
NATIONAL WEATHER SERVICE BOSTON/NORTON MA
400 AM EDT SAT APR 10 2021

NOTE:  "FAIR" INDICATES FEW OR NO CLOUDS BELOW 12,000 FEET WITH NO 
SIGNIFICANT WEATHER AND/OR OBSTRUCTIONS TO VISIBILITY.

MAZALL-100900-
EASTERN MASSACHUSETTS
  
CITY           SKY/WX    TMP DP  RH WIND       PRES   REMARKS
BOSTON         PTCLDY    49  42  77 SW8       30.05S                  
BEVERLY        NOT AVBL                                               
LAWRENCE       MOCLDY    48  43  82 S3        30.04F                  
BEDFORD        MOCLDY    47  42  83 SW5       30.03F                  
BLUE HILL        N/A     44  42  93 SW14G20   30.02F                  
NORWOOD        PTCLDY    47  42  83 S5        30.05F                  
MARSHFIELD     PTCLDY    45  45 100 SW5       30.05S                  
PLYMOUTH       CLOUDY    42  41  96 SW8       30.05F FOG              
TAUNTON        CLOUDY    44  43  96 SW5       30.07F FOG              
NEW BEDFORD    FOG       44  43  96 SW6       30.07F VSB 1            
$$

MAZALL-100900-
CAPE COD AND THE ISLANDS
  
CITY           SKY/WX    TMP DP  RH WIND       PRES   REMARKS
FALMOUTH       FOG       43  43 100 W9        30.07F VSB 1/2          
HYANNIS        CLOUDY    43  41  93 SW7       30.05F                  
CHATHAM        FOG       43  42  97 SW5       30.08S VSB 3/4          
PROVINCETOWN   PTCLDY    42  42 100 S9        30.07S                  
NANTUCKET      FOG       41  41 100 W6        30.07F VSB 1/2          
MARTHAS VNYRD  FOG       41  41 100 W3        30.08S VSB 1/2          
$$
 
MAZALL-100900-
CENTRAL AND WESTERN MASSACHUSETTS
  
CITY           SKY/WX    TMP DP  RH WIND       PRES   REMARKS
WORCESTER      CLOUDY    51  41  68 W14       30.03F                  
FITCHBURG      MOCLDY    48  44  86 CALM      30.03F                  
ORANGE         LGT RAIN  51  46  83 CALM      30.05S                  
SPRINGFIELD    MOCLDY    50  43  76 CALM      30.04F                  
WESTFIELD      CLOUDY    52  45  77 S5        30.04F                  
NORTH ADAMS    PTCLDY    50  42  74 CALM      30.04S                  
PITTSFIELD     MOCLDY    52  41  66 CALM      30.03F                  
$$
 
RIZALL-100900-
RHODE ISLAND
  
CITY           SKY/WX    TMP DP  RH WIND       PRES   REMARKS
PROVIDENCE     MOCLDY    45  43  93 S3        30.07F                  
NEWPORT        CLOUDY    44  44 100 VRB3      30.07F                  
BLOCK ISLAND   LGT RAIN  44  44 100 SW9       30.10S VSB 1/2          
SMITHFIELD     MOCLDY    43  43 100 SW3       30.06F                  
WESTERLY       CLOUDY    44  44 100 SW5       30.08F                  
$$
 
CTZALL-100900-
CONNECTICUT
  
CITY           SKY/WX    TMP DP  RH WIND       PRES   REMARKS
BRADLEY INTL   CLOUDY    52  44  74 S9        30.05F                  
HARTFORD       CLOUDY    51  44  77 S8        30.07S                  
BRIDGEPORT     CLOUDY    48  45  89 SW5       30.08F                  
DANBURY        CLOUDY    52  44  74 CALM      30.08F                  
GROTON         CLOUDY    46  44  93 W8        30.09F                  
NEW HAVEN      CLOUDY    49  46  90 SW3       30.08F                  
CHESTER        CLOUDY    46  46 100 CALM      30.08F                  
MERIDEN        CLOUDY    48  43  82 S6        30.08F                  
WILLIMANTIC    CLOUDY    48  43  82 S5        30.07F                  
OXFORD         CLOUDY    49  47  93 W3        30.07F                  
$$

MEZ002-015-021-024-NHZ003-005-008-011-012-014-VTZ005-008-100900-
NORTHERN NEW ENGLAND
  
CITY           SKY/WX    TMP DP  RH WIND       PRES   REMARKS
PORTLAND ME    CLEAR     41  41 100 CALM      30.02F                  
BANGOR ME      CLEAR     42  40  92 NE6       30.01S                  
CONCORD NH     MOCLDY    42  39  89 CALM      30.02F                  
MANCHESTER NH  MOCLDY    49  42  77 CALM      30.01F                  
NASHUA NH      MOCLDY    45  45 100 CALM      30.03F                  
PORTSMOUTH NH  MOCLDY    42  41  95 CALM      30.03F                  
JAFFREY NH     CLOUDY    51  44  77 S6        30.04S                  
KEENE NH       LGT RAIN  52  45  77 S5        30.04S                  
BURLINGTON VT  CLOUDY    62  42  47 S7        29.97F                  
MT. WASHINGTON PTCLDY    41  32  70 SW7         N/A                   
$$

NYZ052-076-100900-
EASTERN NEW YORK
  
CITY           SKY/WX    TMP DP  RH WIND       PRES   REMARKS
ALBANY         MOCLDY    52  43  71 SE6       30.03F                  
NEW YORK CITY  CLOUDY    51  45  79 SW5       30.08F                  
$$
 
ANZALL-100900-
MARINE OBSERVATIONS
  
STATION/POSITION TIME  TEMP    WIND        PRES    VSBY  WAVE
                       AIR SEA DIR/SP/G                  HT/PER
                 (UTC) (F)     (DEG/KT/KT) (MB)    (MI)  (FT/S)
BOSTON BUOY      0740   45 45  200/  6/  8 1017.8F
BUZZARDS BAY     0700          230/ 13/ 14 1019.7F
NANTUCKET SOUND  0740      46                N/A
MASS BAY-STELLWA 0704   46     220/ 10/ 12 1016.2F  1 7/8  4/11
ISLE OF SHOALS   0700   49     230/  9/  9 1016.4F
S OF BLOCK IS    0726      46                N/A           3/10
$$

......................KEY.........................
  SKY/WX - SKY CONDITION/PRESENT WEATHER
  TMP    - TEMPERATURE IN FAHRENHEIT
  DWPT   - DEWPOINT IN FAHRENHEIT
  RH     - RELATIVE HUMIDITY IN PERCENT
  WIND   - DIRECTION AND SPEED IN MPH
  PRES   - MEAN SEA LEVEL PRESSURE IN INCHES OF HG
  WCI    - WIND CHILL INDEX
  VSB    - VISIBILITY IN MILES
  HX     - HEAT INDEX
  TC     - TEMPERATURE IN CELSIUS
  VRB    - VARIABLE WIND DIRECTION
  N/A    - NOT AVAILABLE
  
      

Other recent Regional Weather Roundups

Fri Apr 16, 10:05am

Fri Apr 16, 9:04am

Fri Apr 16, 8:04am

Fri Apr 16, 7:04am

Fri Apr 16, 6:04am

Fri Apr 16, 5:04am

Fri Apr 16, 4:04am

Fri Apr 16, 3:04am

Fri Apr 16, 2:04am

Fri Apr 16, 1:04am

Fri Apr 16, 12:04am

Thu Apr 15, 11:05pm

Thu Apr 15, 10:04pm

Thu Apr 15, 9:04pm

Thu Apr 15, 8:04pm

Thu Apr 15, 7:05pm

Thu Apr 15, 6:04pm

Thu Apr 15, 5:05pm

Thu Apr 15, 4:04pm

Thu Apr 15, 3:05pm

Thu Apr 15, 2:04pm

Thu Apr 15, 1:05pm

Thu Apr 15, 12:04pm

Thu Apr 15, 11:04am

Thu Apr 15, 10:05am

Thu Apr 15, 9:04am

Thu Apr 15, 8:04am

Thu Apr 15, 7:04am

Thu Apr 15, 6:04am

Thu Apr 15, 5:04am

Thu Apr 15, 4:04am

Thu Apr 15, 3:04am

Thu Apr 15, 2:04am

Thu Apr 15, 1:04am

Thu Apr 15, 12:04am

Wed Apr 14, 11:04pm

Wed Apr 14, 10:04pm

Wed Apr 14, 9:04pm

Wed Apr 14, 8:04pm

Wed Apr 14, 7:04pm

Wed Apr 14, 6:04pm

Wed Apr 14, 5:05pm

Wed Apr 14, 4:04pm

Wed Apr 14, 3:05pm

Wed Apr 14, 2:04pm

Wed Apr 14, 1:05pm

Wed Apr 14, 12:04pm

Wed Apr 14, 11:04am

Wed Apr 14, 10:04am

Wed Apr 14, 9:04am

Wed Apr 14, 8:04am

Wed Apr 14, 7:04am

Wed Apr 14, 6:04am

Wed Apr 14, 5:04am

Wed Apr 14, 4:04am

Wed Apr 14, 3:04am

Wed Apr 14, 2:04am

Wed Apr 14, 1:04am

Wed Apr 14, 12:04am

Tue Apr 13, 11:04pm

Tue Apr 13, 10:05pm

Tue Apr 13, 9:05pm

Tue Apr 13, 8:05pm

Tue Apr 13, 7:04pm

Tue Apr 13, 6:04pm

Tue Apr 13, 5:05pm

Tue Apr 13, 4:04pm

Tue Apr 13, 3:04pm

Tue Apr 13, 2:05pm

Tue Apr 13, 1:04pm

Tue Apr 13, 12:05pm

Tue Apr 13, 11:05am

Tue Apr 13, 10:04am

Tue Apr 13, 9:04am

Tue Apr 13, 8:04am

Tue Apr 13, 7:04am

Tue Apr 13, 6:04am

Tue Apr 13, 5:04am

Tue Apr 13, 4:04am

Tue Apr 13, 3:04am

Tue Apr 13, 2:04am

Tue Apr 13, 1:04am

Tue Apr 13, 12:05am

Mon Apr 12, 11:04pm

Mon Apr 12, 10:04pm

Mon Apr 12, 9:04pm

Mon Apr 12, 8:04pm

Mon Apr 12, 7:05pm

Mon Apr 12, 6:04pm

Mon Apr 12, 5:04pm

Mon Apr 12, 4:04pm

Mon Apr 12, 3:05pm

Mon Apr 12, 2:04pm

Mon Apr 12, 1:05pm

Mon Apr 12, 12:04pm

Mon Apr 12, 11:04am

Mon Apr 12, 10:04am

Mon Apr 12, 9:04am

Mon Apr 12, 8:04am

Mon Apr 12, 7:04am

Mon Apr 12, 6:04am

Mon Apr 12, 5:04am

Mon Apr 12, 4:04am

Mon Apr 12, 3:04am

Mon Apr 12, 2:04am

Mon Apr 12, 1:05am

Mon Apr 12, 12:04am

Sun Apr 11, 11:04pm

Sun Apr 11, 10:04pm

Sun Apr 11, 9:04pm

Sun Apr 11, 8:04pm

Sun Apr 11, 7:04pm

Sun Apr 11, 6:05pm

Sun Apr 11, 5:05pm

Sun Apr 11, 4:04pm

Sun Apr 11, 3:05pm

Sun Apr 11, 2:05pm

Sun Apr 11, 1:05pm

Sun Apr 11, 12:04pm

Sun Apr 11, 11:05am

Sun Apr 11, 10:05am

Sun Apr 11, 9:04am

Sun Apr 11, 8:04am

Sun Apr 11, 7:04am

Sun Apr 11, 6:04am

Sun Apr 11, 5:04am

Sun Apr 11, 4:04am

Sun Apr 11, 3:04am

Sun Apr 11, 2:04am

Sun Apr 11, 1:05am

Sun Apr 11, 12:04am

Sat Apr 10, 11:05pm

Sat Apr 10, 10:04pm

Sat Apr 10, 9:04pm

Sat Apr 10, 8:04pm

Sat Apr 10, 7:05pm

Sat Apr 10, 6:04pm

Sat Apr 10, 5:04pm

Sat Apr 10, 4:04pm

Sat Apr 10, 3:04pm

Sat Apr 10, 2:05pm

Sat Apr 10, 1:04pm

Sat Apr 10, 12:04pm

Sat Apr 10, 11:04am

Sat Apr 10, 10:04am

Sat Apr 10, 9:04am

Sat Apr 10, 8:04am

Sat Apr 10, 7:04am

Sat Apr 10, 6:04am

Sat Apr 10, 5:04am

Sat Apr 10, 3:04am

Sat Apr 10, 2:04am

Sat Apr 10, 1:05am

Sat Apr 10, 12:04am

Fri Apr 9, 11:04pm

Fri Apr 9, 10:05pm

Fri Apr 9, 9:04pm

Fri Apr 9, 8:05pm

Fri Apr 9, 7:05pm

Fri Apr 9, 6:04pm

Fri Apr 9, 5:04pm

Fri Apr 9, 4:05pm

Fri Apr 9, 3:05pm

Fri Apr 9, 2:04pm

Fri Apr 9, 1:04pm

Fri Apr 9, 12:04pm

Fri Apr 9, 11:05am

Meta data:

ID: 66f84c9b-12c3-45cc-9bc8-f6d5e386b787
Link: https://api.weather.gov/products/66f84c9b-12c3-45cc-9bc8-f6d5e386b787